User: anonymous   Login
Location: Unspecified
(48.7670°N, 0.0000°E)
Time: 18:06:23
(UTC+00:00)
Language:

Explorer 7 - Orbit

View from above orbital plane
View from above orbital plane
View from above satellite
View from above satellite

Ground track
Ground track

The orbit data is extracted from the following two-line orbital elements,

1    22U 59009A   19175.55966939 -.00000159  00000-0  11403-4 0  9991
2    22  50.2855 345.6561 0140116 327.8326  31.4129 14.94877195171638
Epoch (UTC): 24 June 2019 13:25:55
Eccentricity: 0.0140116
inclination: 50.2855°
perigee height: 485 km
apogee height: 680 km
right ascension of ascending node: 345.6561°
argument of perigee: 327.8326°
revolutions per day: 14.94877195
mean anomaly at epoch: 31.4129°
orbit number at epoch: 17163

The dashed part of the orbit path shows where the satellite is in the earth's shadow,  

DLR